PDT,Max TemperatureF,Mean TemperatureF,Min TemperatureF,Max Dew PointF,MeanDew PointF,Min DewpointF,Max Humidity, Mean Humidity, Min Humidity, Max Sea Level PressureIn, Mean Sea Level PressureIn, Min Sea Level PressureIn, Max VisibilityMiles, Mean VisibilityMiles, Min VisibilityMiles, Max Wind SpeedMPH, Mean Wind SpeedMPH, Max Gust SpeedMPH,PrecipitationIn, CloudCover, Events, WindDirDegrees
2012-9-1,72,58,45,50,48,44,94,72,44,30.17,30.12,30.03,10,10,10,9,4,,0.00,2,,224
2012-9-2,69,55,41,50,45,39,100,82,44,30.22,30.19,30.15,10,6,0,9,2,,0.00,2,Fog-Rain,188
2012-9-3,72,57,42,52,47,41,100,76,41,30.20,30.17,30.14,10,8,0,14,3,21,0.00,1,Fog,72
2012-9-4,75,60,44,52,48,43,97,72,39,30.23,30.18,30.12,10,9,2,14,3,21,0.00,0,,70
2012-9-5,79,62,44,54,50,43,96,68,37,30.12,30.03,29.94,10,10,7,10,3,,0.00,0,,40
2012-9-6,81,64,48,55,51,47,97,65,32,30.07,30.02,29.97,10,10,10,10,3,,0.00,0,,57
2012-9-7,87,67,47,53,48,44,93,57,22,30.15,30.09,30.04,10,10,10,10,3,,0.00,0,,47
2012-9-8,77,64,50,57,52,46,87,69,47,30.04,29.99,29.95,10,10,10,12,5,,0.00,2,Rain,243
2012-9-9,66,62,57,55,51,48,90,69,56,30.04,30.01,29.99,10,10,10,16,9,21,0.00,8,Rain,200
2012-9-10,68,58,48,55,49,40,94,75,37,30.23,30.08,29.99,10,10,8,16,11,23,0.00,5,Rain,207
2012-9-11,66,53,40,46,41,38,95,63,37,30.33,30.30,30.25,10,10,10,12,5,17,0.00,1,,42
2012-9-12,71,54,38,46,42,36,90,64,36,30.37,30.31,30.25,10,10,9,12,4,,0.00,0,,38
2012-9-13,81,60,39,47,43,37,95,61,21,30.25,30.15,30.06,10,10,10,8,3,,0.00,0,,85
2012-9-14,80,62,44,52,46,43,93,62,27,30.10,30.07,30.03,10,10,10,7,2,,0.00,0,,52
2012-9-15,73,58,44,52,48,43,94,71,42,30.19,30.15,30.09,10,10,10,6,2,,0.00,1,Rain,154
2012-9-16,73,57,41,53,46,39,100,79,44,30.24,30.19,30.13,10,8,1,15,2,,0.00,0,,150
2012-9-17,79,60,42,54,47,41,100,79,40,30.14,30.09,30.01,10,7,1,8,2,,0.00,0,,131
2012-9-18,84,64,45,55,51,44,97,61,31,30.12,30.05,30.03,10,10,10,7,2,,0.00,0,Rain,303
2012-9-19,73,62,51,55,52,48,100,90,50,30.18,30.14,30.07,10,5,0,9,2,,0.00,5,Fog,219
2012-9-20,68,58,48,57,53,46,100,94,60,30.14,30.10,30.06,10,4,0,7,3,,0.00,5,Fog,233
2012-9-21,62,58,55,55,53,51,98,83,68,30.17,30.14,30.13,10,10,10,7,5,,0.00,8,,197
2012-9-22,67,56,46,52,51,45,94,77,52,30.18,30.16,30.13,10,10,10,5,3,,0.00,6,Rain,256
2012-9-23,68,55,42,49,45,41,100,83,47,30.19,30.15,30.13,10,6,0,9,2,,0.00,1,Fog,155
2012-9-24,70,56,42,52,47,42,100,77,50,30.17,30.14,30.10,10,9,2,8,2,,0.00,1,,119
2012-9-25,66,56,46,54,51,45,95,82,58,30.17,30.13,30.10,10,10,2,7,3,,0.00,7,,276
2012-9-26,68,54,41,57,46,41,100,93,49,30.14,30.12,30.06,10,3,0,10,2,,0.00,2,Fog,182
2012-9-27,72,56,41,59,46,41,100,93,44,30.09,30.06,29.96,10,3,0,8,2,,0.00,1,Fog,167
2012-9-28,79,63,47,58,51,45,97,69,31,30.04,29.98,29.95,10,10,10,8,2,,0.00,2,Rain,246
2012-9-29,68,59,50,59,52,41,100,80,39,30.31,30.18,30.04,10,8,4,12,3,20,0.01,6,,308
2012-9-30,68,53,39,47,42,39,100,73,39,30.43,30.38,30.31,10,9,2,13,3,,0.00,0,,74